Location: Unspecified
(0.0000°N, 0.0000°E)
Time: 02:00:49
(UTC+00:00)

Explorer 11/Cluster Stage 4 - Pass Details

Date: 19 April 2026
Orbit: 463 x 1174 km, 28.8° (Epoch: 15 May)

Event Time Altitude Azimuth Distance (km) Brightness Sun altitude
Rises 19:20:55 0° 276° (W) 3,769 11.7 -20.0°
Reaches altitude 10° 19:24:24 10° 262° (W) 2,696 10.3 -20.9°
Maximum altitude 19:29:22 23° 212° (SSW) 1,747 8.5 -22.1°
Enters shadow 19:32:22 16° 172° (S) 2,000 8.4 -22.8°
